CW7448 Weather Reports


time (UTC)temp
C
wind
direction
speed
KPH
gust
KPH
rain 1hr
cm
rain 24hr
cm
rain mn
cm
humidity
%
barometer
mb
20260504231505 15 352 6.4 17.7 0.00 0.00 0.00 53 1009.2
20260504231003 15 291 8.0 17.7 0.00 0.00 0.00 53 1009.2
20260504230503 16 347 6.4 14.5 0.00 0.00 0.00 53 1009.1
20260504230016 16 348 6.4 14.5 0.00 0.00 0.00 53 1009.0
20260504225506 16 331 3.2 14.5 0.00 0.00 0.00 53 1009.0
20260504225007 16 338 4.8 11.3 0.00 0.00 0.00 52 1009.0
20260504224504 16 254 4.8 14.5 0.00 0.00 0.00 52 1008.9
20260504224004 16 333 3.2 14.5 0.00 0.00 0.00 52 1008.9
20260504223505 16 316 3.2 14.5 0.00 0.00 0.00 52 1008.9
20260504223015 16 295 4.8 17.7 0.00 0.00 0.00 51 1008.9
20260504222504 16 285 9.7 17.7 0.00 0.00 0.00 51 1008.9
20260504222009 16 207 3.2 14.5 0.00 0.00 0.00 51 1008.9
20260504221521 17 178 6.4 14.5 0.00 0.00 0.00 51 1008.9
20260504221003 17 338 3.2 17.7 0.00 0.00 0.00 48 1008.8
20260504220508 17 339 3.2 17.7 0.00 0.00 0.00 48 1008.8
20260504220031 17 56 4.8 19.3 0.00 0.00 0.00 49 1008.7
20260504215505 18 283 3.2 19.3 0.00 0.00 0.00 49 1008.6
20260504215004 18 275 4.8 20.9 0.00 0.00 0.00 47 1008.7
20260504214518 18 210 6.4 20.9 0.00 0.00 0.00 46 1008.8
20260504214010 18 222 6.4 22.5 0.00 0.00 0.00 47 1008.6
20260504213504 18 277 3.2 22.5 0.00 0.00 0.00 46 1008.6
20260504213010 18 236 4.8 22.5 0.00 0.00 0.00 46 1008.7
20260504212505 19 325 4.8 17.7 0.00 0.00 0.00 45 1008.5
20260504212006 19 321 3.2 19.3 0.00 0.00 0.00 46 1008.6
20260504211514 19 360 4.8 19.3 0.00 0.00 0.00 46 1008.5
20260504211003 19 349 6.4 20.9 0.00 0.00 0.00 44 1008.5
20260504210508 20 350 8.0 22.5 0.00 0.00 0.00 44 1008.4
20260504210022 20 352 6.4 22.5 0.00 0.00 0.00 41 1008.4
20260504205506 20 28 6.4 16.1 0.00 0.00 0.00 41 1008.4
20260504205005 20 243 3.2 16.1 0.00 0.00 0.00 42 1008.5
20260504204523 20 238 3.2 16.1 0.00 0.00 0.00 41 1008.4
20260504204009 20 340 6.4 19.3 0.00 0.00 0.00 43 1008.4
20260504203505 20 325 6.4 19.3 0.00 0.00 0.00 43 1008.5
20260504203011 20 347 6.4 17.7 0.00 0.00 0.00 43 1008.5
20260504202506 20 352 4.8 22.5 0.00 0.00 0.00 41 1008.3
20260504202004 20 237 6.4 22.5 0.00 0.00 0.00 40 1008.6
20260504201515 20 300 8.0 22.5 0.00 0.00 0.00 40 1008.5
20260504201005 20 301 8.0 24.1 0.00 0.00 0.00 39 1008.4
20260504200507 20 336 8.0 24.1 0.00 0.00 0.00 40 1008.4
20260504200012 21 331 9.7 22.5 0.00 0.00 0.00 39 1008.4
20260504195504 21 360 4.8 25.7 0.00 0.00 0.00 36 1008.3
20260504195007 21 37 8.0 25.7 0.00 0.00 0.00 37 1008.5
20260504194521 21 340 4.8 22.5 0.00 0.00 0.00 37 1008.4
20260504194004 21 310 6.4 22.5 0.00 0.00 0.00 39 1008.4
20260504193508 21 339 8.0 22.5 0.00 0.00 0.00 37 1008.5
20260504193028 21 240 8.0 22.5 0.00 0.00 0.00 40 1008.5
20260504192504 21 347 8.0 19.3 0.00 0.00 0.00 39 1008.6
20260504192007 20 288 6.4 19.3 0.00 0.00 0.00 40 1008.3
20260504191515 20 342 9.7 22.5 0.00 0.00 0.00 36 1008.3
20260504191003 21 347 6.4 22.5 0.00 0.00 0.00 40 1008.4
20260504190506 21 346 6.4 16.1 0.00 0.00 0.00 37 1008.4
20260504190015 21 325 4.8 16.1 0.00 0.00 0.00 36 1008.5
20260504185508 21 11 4.8 20.9 0.00 0.00 0.00 39 1008.5
20260504185006 21 13 4.8 20.9 0.00 0.00 0.00 38 1008.5
20260504184519 20 287 4.8 25.7 0.00 0.00 0.00 38 1008.6
20260504184007 20 350 9.7 25.7 0.00 0.00 0.00 38 1008.6
20260504183509 20 10 3.2 32.2 0.00 0.00 0.00 39 1008.5
20260504183014 20 224 9.7 32.2 0.00 0.00 0.00 38 1008.6
20260504182508 20 312 9.7 24.1 0.00 0.00 0.00 36 1008.8
20260504182006 21 286 8.0 22.5 0.00 0.00 0.00 36 1008.7
20260504181532 21 360 8.0 22.5 0.00 0.00 0.00 38 1008.7
20260504181009 20 333 6.4 22.5 0.00 0.00 0.00 38 1008.8
20260504180508 20 360 8.0 22.5 0.00 0.00 0.00 38 1008.7
20260504180027 20 86 6.4 19.3 0.00 0.00 0.00 36 1008.8
20260504175503 20 40 1.6 20.9 0.00 0.00 0.00 39 1008.9
20260504175006 20 325 9.7 27.4 0.00 0.00 0.00 36 1009.0
20260504174516 20 97 11.3 27.4 0.00 0.00 0.00 39 1009.1
20260504174004 20 320 6.4 20.9 0.00 0.00 0.00 39 1008.9
20260504173506 20 298 9.7 20.9 0.00 0.00 0.00 37 1009.1
20260504173020 20 158 8.0 20.9 0.00 0.00 0.00 34 1009.2
20260504172508 20 317 8.0 20.9 0.00 0.00 0.00 41 1009.1
20260504172010 20 9 6.4 22.5 0.00 0.00 0.00 38 1009.0
20260504171520 20 327 9.7 22.5 0.00 0.00 0.00 39 1009.0
20260504171008 20 21 6.4 19.3 0.00 0.00 0.00 36 1009.1
20260504170514 20 39 6.4 19.3 0.00 0.00 0.00 36 1009.3
20260504151002 18 327 9.7 27.4 0.00 0.00 0.00 36 1010.7
20260504150504 18 344 9.7 19.3 0.00 0.00 0.00 37 1010.8
20260504141004 17 344 6.4 17.7 0.00 0.00 0.00 44 1011.1
20260504140502 17 53 4.8 22.5 0.00 0.00 0.00 47 1011.1
20260504130508 15 113 3.2 16.1 0.00 0.00 0.00 53 1011.3
20260504110504 5 316 1.6 6.4 0.00 0.00 0.00 79 1011.6
20260504100507 2 38 0.0 0.0 0.00 0.00 0.00 87 1011.5
20260504082008 1 94 0.0 0.0 0.00 0.00 0.00 88 1010.8
20260504081524 1 94 0.0 0.0 0.00 0.00 0.00 88 1010.7
20260504081008 1 94 0.0 0.0 0.00 0.00 0.00 87 1010.7
20260504080509 2 94 0.0 0.0 0.00 0.00 0.00 87 1010.7
20260504050505 0 94 0.0 0.0 0.00 0.00 0.00 84 1010.8
20260504050013 0 94 0.0 0.0 0.00 0.00 0.00 84 1010.8
20260504045504 0 94 0.0 0.0 0.00 0.00 0.00 85 1010.9
20260504045006 0 94 0.0 0.0 0.00 0.00 0.00 84 1011.0
20260504044516 0 94 0.0 0.0 0.00 0.00 0.00 84 1011.0
20260504044003 0 94 0.0 0.0 0.00 0.00 0.00 83 1011.1
20260504043504 0 94 0.0 0.0 0.00 0.00 0.00 83 1011.1
20260504043018 0 94 0.0 0.0 0.00 0.00 0.00 83 1011.2
20260504042509 0 94 0.0 0.0 0.00 0.00 0.00 83 1011.1
20260504042004 0 94 0.0 0.0 0.00 0.00 0.00 83 1011.1
20260504041515 0 94 0.0 0.0 0.00 0.00 0.00 83 1011.0
20260504041004 0 94 0.0 0.0 0.00 0.00 0.00 82 1010.8
20260504040504 0 94 0.0 0.0 0.00 0.00 0.00 82 1010.8
20260504040008 1 94 0.0 0.0 0.00 0.00 0.00 82 1010.8
20260504035505 1 94 0.0 0.0 0.00 0.00 0.00 81 1010.8
20260504035005 1 94 0.0 0.0 0.00 0.00 0.00 81 1010.9
20260504034514 1 94 0.0 0.0 0.00 0.00 0.00 80 1010.8
20260504034005 1 94 0.0 0.0 0.00 0.00 0.00 80 1010.8
20260504033506 1 94 0.0 0.0 0.00 0.00 0.00 80 1010.7
20260504033033 1 94 0.0 0.0 0.00 0.00 0.00 80 1010.8
20260504032504 1 94 0.0 0.0 0.00 0.00 0.00 81 1010.8
20260504032007 1 94 0.0 0.0 0.00 0.00 0.00 81 1010.8
20260504031530 1 94 0.0 0.0 0.00 0.00 0.00 80 1010.7
20260504031006 1 94 0.0 0.0 0.00 0.00 0.00 80 1010.7
20260504030503 1 94 0.0 0.0 0.00 0.00 0.00 80 1010.6
20260504030021 1 94 0.0 0.0 0.00 0.00 0.00 78 1010.5
20260504025507 2 94 0.0 0.0 0.00 0.00 0.00 78 1010.6
20260504025003 2 94 0.0 0.0 0.00 0.00 0.00 77 1010.5
20260504024525 2 94 0.0 0.0 0.00 0.00 0.00 76 1010.4
20260504024007 2 94 0.0 0.0 0.00 0.00 0.00 75 1010.4
20260504023505 2 94 0.0 0.0 0.00 0.00 0.00 76 1010.4
20260504023014 2 94 0.0 0.0 0.00 0.00 0.00 76 1010.4
20260504022506 2 94 0.0 0.0 0.00 0.00 0.00 75 1010.4
20260504022014 2 94 0.0 0.0 0.00 0.00 0.00 74 1010.3
20260504021521 2 94 0.0 0.0 0.00 0.00 0.00 74 1010.3
20260504021003 2 94 0.0 0.0 0.00 0.00 0.00 74 1010.3
20260504020506 2 94 0.0 0.0 0.00 0.00 0.00 73 1010.3
20260504020026 3 94 0.0 0.0 0.00 0.00 0.00 72 1010.3
20260504015506 3 94 0.0 0.0 0.00 0.00 0.00 72 1010.4
20260504015007 3 94 0.0 0.0 0.00 0.00 0.00 71 1010.3
20260504014524 3 94 0.0 0.0 0.00 0.00 0.00 70 1010.2
20260504014010 3 94 0.0 0.0 0.00 0.00 0.00 69 1010.2
20260504013502 3 94 0.0 0.0 0.00 0.00 0.00 70 1010.2
20260504013003 3 94 0.0 0.0 0.00 0.00 0.00 70 1010.1
20260504012503 3 94 0.0 0.0 0.00 0.00 0.00 69 1010.1
20260504012003 3 94 0.0 0.0 0.00 0.00 0.00 67 1010.1
20260504011504 4 94 0.0 0.0 0.00 0.00 0.00 67 1010.1
20260504011003 4 94 0.0 0.0 0.00 0.00 0.00 65 1010.0
20260504010502 4 94 0.0 0.0 0.00 0.00 0.00 65 1009.9
20260504010004 5 94 0.0 0.0 0.00 0.00 0.00 65 1009.7
20260504005504 5 94 0.0 0.0 0.00 0.00 0.00 64 1009.7
20260504005002 5 94 0.0 0.0 0.00 0.00 0.00 65 1009.6
20260504004508 5 94 0.0 0.0 0.00 0.00 0.00 65 1009.5
20260504004003 5 94 0.0 0.0 0.00 0.00 0.00 65 1009.4
20260504003503 5 94 0.0 0.0 0.00 0.00 0.00 66 1009.4
20260504003004 6 94 0.0 0.0 0.00 0.00 0.00 64 1009.4
20260504002504 6 94 0.0 0.0 0.00 0.00 0.00 63 1009.3
20260504002002 6 94 0.0 3.2 0.00 0.00 0.00 62 1009.2
20260504001504 6 94 0.0 3.2 0.00 0.00 0.00 62 1009.1
20260504001002 7 94 0.0 1.6 0.00 0.00 0.00 56 1009.0
20260504000502 7 94 0.0 1.6 0.00 0.00 0.00 55 1008.9
20260504000004 7 94 0.0 1.6 0.00 0.00 0.00 54 1008.8
20260503235503 8 94 0.0 1.6 0.00 0.00 0.00 53 1008.8
20260503235003 8 94 0.0 1.6 0.00 0.00 0.00 50 1008.9
20260503234504 8 94 0.0 1.6 0.00 0.00 0.00 50 1008.9
20260503234003 8 360 0.0 1.6 0.00 0.00 0.00 51 1008.9
20260503233502 9 360 0.0 8.0 0.00 0.00 0.00 48 1008.8
20260503233004 9 352 1.6 8.0 0.00 0.00 0.00 48 1008.8
20260503232502 9 352 0.0 6.4 0.00 0.00 0.00 48 1008.7
20260503232004 9 18 3.2 6.4 0.00 0.00 0.00 48 1008.7